EW8889 Weather Reports


Display with metric or nautical units.
time (UTC)temp
F
wind
direction
speed
MPH
gust
MPH
rain 1hr
in
rain 24hr
in
rain mn
in
humidity
%
barometer
mb
20181022105858 58 65 2.0 10.0 0.00 0.00 0.00 68 1033.0
20181022095910 58 325 1.0 10.0 0.00 0.00 0.00 69 1032.6
20181022085858 56 32 1.0 10.0 0.00 0.00 0.00 80 1032.3
20181022075857 54 310 1.0 10.0 0.00 0.00 0.00 91 1031.5
20181022065859 55 84 0.0 6.0 0.00 0.00 0.00 91 1030.2
20181022055858 55 63 0.0 6.0 0.00 0.00 0.00 92 1029.1
20181022045906 55 56 2.0 9.0 0.00 0.00 0.00 93 1028.4
20181022035857 56 255 0.0 7.0 0.00 0.00 0.00 93 1027.8
20181022025856 56 49 0.0 5.0 0.00 0.00 0.00 90 1027.3
20181022015909 55 206 0.0 0.0 0.00 0.00 0.00 84 1026.9
20181022005856 54 206 0.0 0.0 0.00 0.00 0.00 82 1026.8
20181021225851 55 206 0.0 0.0 0.00 0.00 0.00 81 1026.8
20181021215854 55 206 0.0 0.0 0.00 0.00 0.00 80 1026.7
20181021205850 54 206 0.0 0.0 0.00 0.00 0.00 81 1026.5
20181021195855 54 206 0.0 0.0 0.00 0.00 0.00 83 1026.5
20181021185900 55 206 0.0 0.0 0.00 0.00 0.00 78 1026.3
20181021175846 57 206 0.0 0.0 0.00 0.00 0.00 73 1026.1
20181021170126 59 206 0.0 0.0 0.00 0.00 0.00 70 1026.3
20181021155855 60 206 0.0 4.0 0.00 0.00 0.00 68 1026.3
20181021145852 63 206 1.0 4.0 0.00 0.00 0.00 61 1026.8
20181021135842 64 220 1.0 6.0 0.00 0.00 0.00 60 1027.1
20181021125841 62 235 2.0 5.0 0.00 0.00 0.00 61 1027.4
20181021115842 60 94 1.0 4.0 0.00 0.00 0.00 65 1028.0